This is the latest recevied weather packets stored in our database for station/object OM8AKX-4. If no packets are shown the sender has not sent any weather packets the latest 10 day(s).
| Time | Temp. | Humidity | Pressure | Rain* | Wind** | Luminosity | Snow |
|---|---|---|---|---|---|---|---|
| 1777320171 | 2.78° C | 47% | 879.4 hPa | - | - | - | - |
| 1777319271 | 2.78° C | 48% | 879.4 hPa | - | - | - | - |
| 1777318371 | 3.33° C | 48% | 879.4 hPa | - | - | - | - |
| 1777317471 | 3.33° C | 49% | 879.4 hPa | - | - | - | - |
| 1777316570 | 3.33° C | 52% | 879.3 hPa | - | - | - | - |
| 1777315671 | 3.89° C | 53% | 879.3 hPa | - | - | - | - |
| 1777314770 | 4.44° C | 50% | 879.2 hPa | - | - | - | - |
| 1777313869 | 5° C | 48% | 878.9 hPa | - | - | - | - |
| 1777312969 | 5° C | 48% | 879 hPa | - | - | - | - |
| 1777312071 | 5° C | 49% | 878.8 hPa | - | - | - | - |
| 1777311171 | 5.56° C | 50% | 878.7 hPa | - | - | - | - |
| 1777310271 | 6.11° C | 51% | 878.7 hPa | - | - | - | - |
| 1777309371 | 6.11° C | 52% | 878.6 hPa | - | - | - | - |
| 1777308471 | 6.67° C | 51% | 878.7 hPa | - | - | - | - |
| 1777307571 | 6.67° C | 51% | 878.5 hPa | - | - | - | - |
| 1777306671 | 6.67° C | 49% | 878.3 hPa | - | - | - | - |
| 1777305771 | 7.22° C | 48% | 878.5 hPa | - | - | - | - |
| 1777304870 | 7.78° C | 44% | 878.6 hPa | - | - | - | - |
| 1777303970 | 7.78° C | 46% | 878.6 hPa | - | - | - | - |
| 1777303070 | 7.78° C | 47% | 878.6 hPa | - | - | - | - |
| 1777302170 | 7.78° C | 48% | 878.6 hPa | - | - | - | - |
| 1777301270 | 7.22° C | 47% | 878.7 hPa | - | - | - | - |
| 1777300370 | 6.67° C | 45% | 878.9 hPa | - | - | - | - |
| 1777299470 | 7.78° C | 45% | 878.9 hPa | - | - | - | - |
| 1777298570 | 8.89° C | 45% | 878.9 hPa | - | - | - | - |
* Rain since midnight (hover to see other rain measurements)
** Current wind speed in m/s (hover to see current wind gust speed)